Location: Newark
(48.5178°N, 4.2361°E)
Time: 20:10:05
(UTC+00:00)

Envisat - Pass Details

Date: 15 March 2021
Orbit: 764 x 766 km, 98.1° (Epoch: 16 April)

Event Time Altitude Azimuth Distance (km) Brightness Sun altitude
Rises 04:12:07 0° 27° (NNE) 3,243 6.9 -17.8°
Reaches altitude 10° 04:15:07 10° 45° (NE) 2,311 6.4 -17.4°
Maximum altitude 04:18:41 19° 90° (E) 1,763 5.8 -16.8°
Drops below altitude 10° 04:22:14 10° 134° (SE) 2,298 5.9 -16.2°
Sets 04:25:11 0° 152° (SSE) 3,218 6.4 -15.8°
